Theta_e
326 327 325 326 326 325 321 328 327 331 335 341 340 343 350 354 351 358 350 347 345 346 350 351 352 354 358 363 362 362 360 360
328 328 327 328 326 323 324 333 336 339 343 345 341 350 353 355 357 358 358 358 352 343 346 352 353 352 356 362 363 364 363 362
325 326 324 324 324 325 324 328 333 339 340 341 340 351 353 354 354 358 359 358 358 355 348 347 345 353 359 363 363 365 365 364
324 325 325 331 331 327 328 333 327 332 336 337 340 349 349 351 352 356 358 357 357 354 342 340 338 344 342 340 364 363 361 363
327 324 331 331 329 328 325 327 330 333 337 333 338 338 346 354 354 354 354 356 356 358 359 351 361 361 356 356 357 356 359 361
329 327 329 329 327 329 327 328 330 333 337 338 338 338 341 342 351 353 353 352 355 359 364 366 363 362 359 359 358 361 362 362
327 329 332 328 327 329 329 331 330 330 337 339 339 337 340 341 342 350 354 353 358 361 360 360 361 361 360 361 359 363 363 361
329 330 331 330 330 329 331 331 331 330 330 336 335 335 341 340 342 347 350 351 358 357 358 358 357 360 363 363 361 359 357 360
329 332 332 331 331 330 330 331 331 331 330 332 333 338 340 340 346 347 348 348 347 352 355 356 356 357 359 357 356 361 361 365
330 333 336 333 331 331 333 333 331 330 332 333 335 333 336 337 343 345 345 350 348 352 353 351 354 356 354 356 358 359 358 363
332 335 334 335 335 335 335 334 333 331 333 333 332 337 338 339 343 346 345 344 350 352 348 346 345 352 353 354 354 352 357 360
337 338 339 338 334 333 334 339 335 334 334 340 338 339 346 342 342 341 341 341 341 345 343 342 341 342 345 348 351 350 351 355
338 339 338 336 334 333 335 339 336 334 338 342 344 342 339 340 341 341 339 339 339 340 339 339 338 338 338 340 344 341 341 342
337 340 342 339 339 340 338 336 334 335 335 342 340 340 340 339 339 338 337 335 335 335 335 335 334 334 335 336 338 336 336 336
341 346 341 336 337 335 331 332 331 333 335 335 336 339 339 337 335 334 335 334 334 334 334 334 334 334 334 336 337 336 336 335
341 337 336 336 334 333 331 332 331 334 337 335 335 335 336 334 334 334 335 335 334 335 336 336 336 335 334 334 333 334 337 338
340 336 335 334 335 334 333 333 334 334 335 335 334 335 334 335 334 335 335 334 334 335 335 335 334 334 334 334 334 332 331 331
337 336 336 337 335 334 333 333 333 333 334 334 333 333 334 333 335 334 333 332 334 335 334 334 334 335 332 331 331 331 330 331
336 331 334 335 333 332 333 332 332 334 335 333 335 335 335 335 335 333 334 336 337 338 332 329 329 329 330 330 330 331 331 331
Wind_Speed
9 6 7 8 3 7 1 2 6 4 3 8 9 8 11 12 13 6 12 8 28 30 30 32 31 35 36 38 38 38 38 34
4 3 6 1 4 5 5 2 2 4 4 5 7 7 9 9 8 9 11 15 4 19 23 13 20 33 29 37 36 36 35 33
7 4 8 2 4 4 4 4 5 3 2 7 6 10 10 9 8 8 9 9 16 21 31 13 40 14 30 33 32 31 32 30
10 10 9 5 2 1 5 4 2 6 3 6 10 12 11 9 7 5 6 7 11 28 41 52 42 16 23 34 32 32 31 29
3 6 3 1 4 3 3 3 3 6 4 5 10 10 8 10 7 4 6 6 7 9 18 20 9 15 34 36 28 26 24 26
7 10 7 7 6 3 3 5 1 4 6 7 8 10 9 9 7 7 4 6 5 8 11 16 15 16 12 9 10 5 19 15
9 11 10 14 11 8 5 2 4 5 9 8 9 9 9 8 9 9 4 6 9 7 7 10 10 7 4 8 6 9 7 6
8 11 5 10 11 10 9 7 5 6 6 11 9 8 9 9 8 9 9 8 6 8 9 7 7 1 3 8 4 1 3 4
8 9 7 3 4 4 4 4 5 5 11 7 8 11 10 9 10 9 8 7 7 3 10 14 11 7 4 2 1 2 4 4
6 5 4 6 4 9 10 7 7 8 7 5 8 9 9 8 10 9 8 9 8 14 20 18 8 12 10 7 3 1 3 5
4 3 5 6 3 7 3 5 6 9 10 8 8 11 8 8 8 9 9 11 16 18 18 15 19 14 6 3 2 3 4 2
2 5 4 2 7 7 7 3 7 11 10 11 9 5 1 8 11 10 17 14 12 13 15 12 11 12 14 11 15 13 11 9
1 4 5 2 5 6 6 6 6 9 9 11 7 6 7 9 9 15 14 8 7 11 12 10 7 8 10 10 8 7 10 11
0 2 2 5 8 7 5 4 9 7 7 9 11 10 9 8 8 11 13 9 6 6 6 6 7 6 6 8 9 14 16 18
3 5 4 7 8 6 8 7 7 6 7 8 9 7 10 8 8 9 13 10 7 7 4 4 5 7 9 12 13 16 19 24
5 8 8 7 6 8 8 8 8 7 9 8 7 9 7 6 7 9 11 10 9 8 6 7 7 9 12 16 17 17 17 19
4 5 6 13 2 6 8 8 8 8 9 10 10 8 8 7 7 9 9 7 6 4 5 10 13 15 16 14 13 15 17 18
3 4 11 6 8 8 7 6 7 7 7 7 8 5 5 3 3 2 2 7 8 10 12 15 16 15 17 19 19 20 21 22
4 10 5 4 6 7 8 7 7 4 5 7 10 13 10 7 9 11 11 6 6 6 9 13 17 20 22 23 25 26 26 27
Wind_Direction
162 194 166 281 5 244 189 21 82 141 122 35 66 67 82 98 160 355 352 46 161 209 196 193 181 179 180 180 189 196 203 213
143 185 264 201 257 1 340 147 123 56 93 169 87 88 71 54 42 19 16 18 90 207 191 155 187 180 175 183 190 195 202 210
101 179 217 286 302 258 163 118 143 128 238 183 141 131 104 80 50 27 21 26 41 95 83 137 306 227 171 177 188 193 200 211
187 213 217 244 261 80 109 333 129 122 300 127 96 115 113 113 97 54 52 33 79 104 128 172 221 215 137 248 190 199 205 209
238 294 219 187 282 283 0 64 209 118 226 143 103 99 115 119 121 92 71 68 79 88 134 178 146 107 158 191 182 197 204 206
201 214 167 176 209 280 89 72 25 139 118 90 101 102 93 99 119 125 98 41 85 65 70 56 55 60 68 77 73 104 170 175
286 305 190 174 185 177 167 154 116 139 131 156 139 123 122 106 75 67 92 88 101 93 76 70 63 50 58 79 99 86 136 202
307 293 255 162 185 176 169 177 206 126 118 144 144 113 105 109 103 85 68 55 111 124 124 118 105 55 43 110 133 339 342 295
267 287 309 182 181 160 177 165 175 169 162 147 152 133 140 135 125 112 97 72 40 345 159 153 160 182 171 151 201 193 233 277
245 327 314 233 214 143 108 101 74 72 104 101 148 159 144 141 135 126 109 81 50 81 63 58 38 182 191 187 114 3 293 241
180 243 258 317 52 97 77 60 63 91 60 23 88 85 34 87 101 104 96 78 72 85 81 60 42 54 130 114 107 311 268 181
221 174 229 165 85 72 99 34 352 74 59 60 33 89 188 90 89 80 74 65 51 96 79 66 44 40 45 41 52 45 31 36
321 216 120 15 62 100 116 193 61 75 81 81 86 146 133 86 86 110 109 85 58 70 86 72 53 32 15 14 21 1 338 330
236 57 261 311 32 103 191 82 88 69 89 114 126 123 123 123 128 125 132 134 102 77 55 24 8 358 337 321 320 317 318 317
73 159 174 61 114 86 82 98 58 87 57 103 104 131 136 136 134 136 118 117 89 74 42 5 344 336 326 321 318 313 311 307
42 358 10 87 74 88 76 72 52 92 96 82 74 77 115 108 89 90 82 76 53 37 16 343 333 323 316 313 311 305 300 296
180 203 359 296 120 109 85 88 76 65 81 86 77 67 73 69 68 71 68 46 19 350 309 296 296 297 295 291 294 298 298 296
189 195 186 198 137 130 125 127 106 117 96 114 115 121 106 102 98 115 259 269 253 253 261 272 277 277 282 282 280 277 277 279
81 333 357 102 116 80 109 96 76 49 159 159 166 173 184 185 209 229 242 252 280 294 302 298 294 290 290 287 282 274 271 275